Content
SEND FEEDBACK

Daily
Averages
Monthly
Summary
Japan

IMAZU, JAPAN


Home > Asia > Japan
Elevation: 10 feet     Latitude: 34 01N     Longitude: 132 13E

WEATHER
 
SELECT A DAY
Number of Records: 91,209;   Date Range: 7/2/96 - 7/11/14
 
SHARE

PRINT THIS DATA

[ ← Previous Day ]
WEATHER ALMANAC - JANUARY 31, 2013
[ Next Day → ]
[ °C ]   °F
Weather ElementAverageHighLow
Temperature42.5 °F50 °F (12:55 pm)34 °F (6:55 am)
Dewpoint31.9 °F35.1 °F (4:55 pm)28.9 °F (5:55 am)
Humidity67 %82 % (3:55 am)46 % (12:55 pm)
Barometer30.47 in30.52 in (9:55 am)30.43 in (3:55 pm)
Wind Speed4.4 mph6.9 mph (1:55 am)
Weather ElementAverage
Visibility5.9 mi
Wind DirectionWSW (232.6 °)

Weather ElementTotal
Precipitation---
Heating Degree Days23 (Base 65)
Averaged from 23 records on January 31, 2013
WEATHER CONDITIONS BREAKOUT
WIND DIRECTION BREAKOUT
WEATHER BY HOUR - JANUARY 31, 2013
[ °C ]   °F
Local TimeTemperatureDewpointHumidityBarometerVisibilityWind DirectionWind SpeedGust SpeedPrecipitationEventsConditions
1:55 AM37.9 °F30.9 °F76 %30.47 in5.6 miNW (310°)6.9 mphHaze
2:55 AM37.0 °F30.0 °F76 %30.48 in5.6 miWNW (300°)5.8 mphHaze
3:55 AM35.1 °F30.0 °F82 %30.45 in5.6 miWNW (300°)6.9 mphHaze
4:55 AM35.1 °F30.0 °F82 %30.46 in5.6 miNW (310°)6.9 mphHaze
5:55 AM35.1 °F28.9 °F78 %30.46 in5.6 miNW (310°)5.8 mphHaze
6:55 AM34.0 °F28.9 °F82 %30.48 in5.0 miWNW (300°)5.8 mphHaze
7:55 AM36.0 °F30.0 °F79 %30.50 in5.0 miWNW (290°)4.6 mphHaze
8:55 AM41.0 °F30.9 °F67 %30.51 in5.0 miNNW (330°)4.6 mphHaze
9:55 AM45.0 °F34.0 °F65 %30.52 in5.6 miNorth (360°)4.6 mphHaze
10:55 AM48.0 °F33.1 °F56 %30.51 in6.2 miNNE (30°)6.9 mphMostly Cloudy
11:55 AM48.9 °F30.9 °F50 %30.49 in6.2 miNE (50°)3.5 mphScattered Clouds
12:55 PM50.0 °F30.0 °F46 %30.47 in6.2 miCalmMostly Cloudy
1:55 PM48.9 °F32.0 °F52 %30.45 in6.2 miSSE (150°)3.5 mphMostly Cloudy
2:55 PM50.0 °F33.1 °F52 %30.45 in6.2 miNorth (360°)3.5 mphScattered Clouds
3:55 PM50.0 °F34.0 °F54 %30.43 in6.2 miSouth (170°)3.5 mphMostly Cloudy
4:55 PM48.9 °F35.1 °F59 %30.44 in6.2 miCalmMostly Cloudy
5:55 PM46.9 °F35.1 °F63 %30.44 in6.2 miCalmScattered Clouds
6:55 PM45.0 °F34.0 °F65 %30.45 in6.2 miWNW (290°)3.5 mphScattered Clouds
7:55 PM43.0 °F33.1 °F68 %30.46 in6.2 miWNW (300°)4.6 mphScattered Clouds
8:55 PM42.1 °F33.1 °F70 %30.48 in6.2 miWNW (290°)4.6 mphScattered Clouds
9:55 PM42.1 °F32.0 °F67 %30.48 in6.2 miWNW (300°)4.6 mphScattered Clouds
10:55 PM39.0 °F32.0 °F76 %30.46 in6.2 miWNW (300°)5.8 mphScattered Clouds
11:55 PM39.0 °F32.0 °F76 %30.46 in5.6 miWNW (300°)4.6 mphScattered Clouds
Hourly data recorded from RJOI, located miles away from Imazu, Japan







STORIES FROM OUR PARTNERS